contact:dominique.lefevre@mio.osupytheas.fr, maurice.libes@osupytheas.fr, didier.mallarino@osupytheas.fr
Project:EMSO http://www.emso-fr.org/EMSO-France
Depth: 2436.0 m
Title:EMSO Ligure Ouest : Data MII capteur MICROCAT
DateTime_Computer,Latitude,Longitude,Temperature,Conductivity,Pressure,DateTime_Instrument
DateTime_Computer,Latitude,Longitude,degC,S m-1,dbar,DateTime_Instrument
2022-06-26T00:02:12Z,42.805,6.029,13.3005,4.60039,2470.591,2022-6-26T02:03:56Z
2022-06-26T00:05:15Z,42.805,6.029,13.3005,4.60039,2470.614,2022-6-26T02:06:59Z
2022-06-26T00:08:18Z,42.805,6.029,13.3009,4.60038,2470.591,2022-6-26T02:10:02Z
2022-06-26T00:11:21Z,42.805,6.029,13.3004,4.60040,2470.53,2022-6-26T02:13:05Z
2022-06-26T00:14:24Z,42.805,6.029,13.3005,4.60041,2470.591,2022-6-26T02:16:09Z
2022-06-26T00:17:27Z,42.805,6.029,13.3004,4.60037,2470.553,2022-6-26T02:19:12Z
2022-06-26T00:20:30Z,42.805,6.029,13.3002,4.60036,2470.591,2022-6-26T02:22:15Z
2022-06-26T00:23:34Z,42.805,6.029,13.3004,4.60041,2470.591,2022-6-26T02:25:18Z
2022-06-26T00:26:37Z,42.805,6.029,13.3006,4.60036,2470.614,2022-6-26T02:28:21Z
2022-06-26T00:29:40Z,42.805,6.029,13.3004,4.60043,2470.577,2022-6-26T02:31:24Z
2022-06-26T00:32:43Z,42.805,6.029,13.3004,4.60040,2470.614,2022-6-26T02:34:27Z
2022-06-26T00:35:46Z,42.805,6.029,13.3001,4.60039,2470.553,2022-6-26T02:37:30Z
2022-06-26T00:38:49Z,42.805,6.029,13.2998,4.60039,2470.6,2022-6-26T02:40:34Z
2022-06-26T00:41:52Z,42.805,6.029,13.3006,4.60037,2470.577,2022-6-26T02:43:37Z
2022-06-26T00:44:55Z,42.805,6.029,13.3007,4.60039,2470.591,2022-6-26T02:46:40Z
2022-06-26T00:47:58Z,42.805,6.029,13.3004,4.60044,2470.577,2022-6-26T02:49:43Z
2022-06-26T00:51:02Z,42.805,6.029,13.3004,4.60043,2470.637,2022-6-26T02:52:46Z
2022-06-26T00:54:05Z,42.805,6.029,13.3008,4.60042,2470.614,2022-6-26T02:55:49Z
2022-06-26T00:57:08Z,42.805,6.029,13.3006,4.60042,2470.567,2022-6-26T02:58:52Z
2022-06-26T01:00:11Z,42.805,6.029,13.3008,4.60039,2470.577,2022-6-26T03:01:55Z
2022-06-26T01:03:14Z,42.805,6.029,13.3006,4.60044,2470.6,2022-6-26T03:04:59Z
2022-06-26T01:06:17Z,42.805,6.029,13.3006,4.60042,2470.577,2022-6-26T03:08:02Z
2022-06-26T01:09:20Z,42.805,6.029,13.3006,4.60039,2470.624,2022-6-26T03:11:05Z
2022-06-26T01:12:23Z,42.805,6.029,13.3004,4.60039,2470.577,2022-6-26T03:14:08Z
2022-06-26T01:15:27Z,42.805,6.029,13.3005,4.60042,2470.6,2022-6-26T03:17:11Z
2022-06-26T01:18:30Z,42.805,6.029,13.3006,4.60039,2470.6,2022-6-26T03:20:14Z
2022-06-26T01:21:33Z,42.805,6.029,13.3003,4.60043,2470.577,2022-6-26T03:23:17Z
2022-06-26T01:24:36Z,42.805,6.029,13.3004,4.60041,2470.6,2022-6-26T03:26:20Z
2022-06-26T01:27:39Z,42.805,6.029,13.3009,4.60039,2470.637,2022-6-26T03:29:24Z
2022-06-26T01:30:42Z,42.805,6.029,13.3003,4.60039,2470.591,2022-6-26T03:32:27Z
2022-06-26T01:33:45Z,42.805,6.029,13.3002,4.60041,2470.6,2022-6-26T03:35:30Z
2022-06-26T01:36:48Z,42.805,6.029,13.3004,4.60041,2470.6,2022-6-26T03:38:33Z
2022-06-26T01:39:52Z,42.805,6.029,13.3005,4.60040,2470.614,2022-6-26T03:41:36Z
2022-06-26T01:42:55Z,42.805,6.029,13.3009,4.60042,2470.591,2022-6-26T03:44:39Z
2022-06-26T01:45:58Z,42.805,6.029,13.3004,4.60037,2470.6,2022-6-26T03:47:42Z
2022-06-26T01:49:01Z,42.805,6.029,13.3005,4.60038,2470.614,2022-6-26T03:50:45Z
2022-06-26T01:52:04Z,42.805,6.029,13.3008,4.60038,2470.567,2022-6-26T03:53:49Z
2022-06-26T01:55:07Z,42.805,6.029,13.3008,4.60040,2470.624,2022-6-26T03:56:52Z
2022-06-26T01:58:10Z,42.805,6.029,13.3004,4.60039,2470.624,2022-6-26T03:59:55Z
2022-06-26T02:01:13Z,42.805,6.029,13.3006,4.60039,2470.577,2022-6-26T04:02:58Z
2022-06-26T02:04:17Z,42.805,6.029,13.3008,4.60040,2470.637,2022-6-26T04:06:01Z
2022-06-26T02:07:20Z,42.805,6.029,13.3006,4.60039,2470.624,2022-6-26T04:09:04Z
2022-06-26T02:10:23Z,42.805,6.029,13.3009,4.60038,2470.577,2022-6-26T04:12:07Z
2022-06-26T02:13:26Z,42.805,6.029,13.3006,4.60040,2470.614,2022-6-26T04:15:10Z
2022-06-26T02:16:29Z,42.805,6.029,13.3005,4.60042,2470.637,2022-6-26T04:18:13Z
2022-06-26T02:19:32Z,42.805,6.029,13.3005,4.60038,2470.6,2022-6-26T04:21:17Z
2022-06-26T02:22:35Z,42.805,6.029,13.3009,4.60040,2470.637,2022-6-26T04:24:20Z
2022-06-26T02:25:38Z,42.805,6.029,13.3006,4.60039,2470.6,2022-6-26T04:27:23Z
2022-06-26T02:28:41Z,42.805,6.029,13.3005,4.60040,2470.614,2022-6-26T04:30:26Z
2022-06-26T02:31:45Z,42.805,6.029,13.3007,4.60037,2470.6,2022-6-26T04:33:29Z
2022-06-26T02:34:48Z,42.805,6.029,13.3003,4.60038,2470.6,2022-6-26T04:36:32Z
2022-06-26T02:37:51Z,42.805,6.029,13.3009,4.60038,2470.637,2022-6-26T04:39:35Z
2022-06-26T02:40:54Z,42.805,6.029,13.3003,4.60039,2470.6,2022-6-26T04:42:38Z
2022-06-26T02:43:57Z,42.805,6.029,13.3006,4.60037,2470.624,2022-6-26T04:45:42Z
2022-06-26T02:47:00Z,42.805,6.029,13.3006,4.60039,2470.6,2022-6-26T04:48:45Z
2022-06-26T02:50:03Z,42.805,6.029,13.3004,4.60037,2470.624,2022-6-26T04:51:48Z
2022-06-26T02:53:06Z,42.805,6.029,13.3005,4.60040,2470.646,2022-6-26T04:54:51Z
2022-06-26T02:56:10Z,42.805,6.029,13.3006,4.60035,2470.624,2022-6-26T04:57:54Z
2022-06-26T02:59:13Z,42.805,6.029,13.3004,4.60036,2470.577,2022-6-26T05:00:57Z
2022-06-26T03:02:16Z,42.805,6.029,13.3005,4.60038,2470.646,2022-6-26T05:04:00Z
2022-06-26T03:05:19Z,42.805,6.029,13.3006,4.60039,2470.577,2022-6-26T05:07:03Z
2022-06-26T03:08:22Z,42.805,6.029,13.3010,4.60036,2470.646,2022-6-26T05:10:07Z
2022-06-26T03:11:25Z,42.805,6.029,13.3009,4.60036,2470.661,2022-6-26T05:13:10Z
2022-06-26T03:14:28Z,42.805,6.029,13.3006,4.60038,2470.6,2022-6-26T05:16:13Z
2022-06-26T03:17:31Z,42.805,6.029,13.3006,4.60039,2470.624,2022-6-26T05:19:16Z
2022-06-26T03:20:35Z,42.805,6.029,13.3003,4.60037,2470.624,2022-6-26T05:22:19Z
2022-06-26T03:23:38Z,42.805,6.029,13.3000,4.60036,2470.646,2022-6-26T05:25:22Z
2022-06-26T03:26:41Z,42.805,6.029,13.3005,4.60036,2470.624,2022-6-26T05:28:25Z
2022-06-26T03:29:44Z,42.805,6.029,13.3010,4.60037,2470.646,2022-6-26T05:31:28Z
2022-06-26T03:32:47Z,42.805,6.029,13.3004,4.60039,2470.624,2022-6-26T05:34:32Z
2022-06-26T03:35:50Z,42.805,6.029,13.3009,4.60038,2470.633,2022-6-26T05:37:35Z
2022-06-26T03:38:53Z,42.805,6.029,13.3005,4.60041,2470.661,2022-6-26T05:40:38Z
2022-06-26T03:41:56Z,42.805,6.029,13.3007,4.60037,2470.624,2022-6-26T05:43:41Z
2022-06-26T03:45:00Z,42.805,6.029,13.3005,4.60036,2470.646,2022-6-26T05:46:44Z
2022-06-26T03:48:03Z,42.805,6.029,13.3008,4.60036,2470.67,2022-6-26T05:49:47Z
2022-06-26T03:51:06Z,42.805,6.029,13.3005,4.60037,2470.646,2022-6-26T05:52:50Z
2022-06-26T03:54:09Z,42.805,6.029,13.3007,4.60037,2470.67,2022-6-26T05:55:53Z
2022-06-26T03:57:12Z,42.805,6.029,13.3008,4.60038,2470.661,2022-6-26T05:58:57Z
2022-06-26T04:00:15Z,42.805,6.029,13.3004,4.60041,2470.67,2022-6-26T06:02:00Z
2022-06-26T04:03:18Z,42.805,6.029,13.3003,4.60038,2470.656,2022-6-26T06:05:03Z
2022-06-26T04:06:21Z,42.805,6.029,13.3005,4.60038,2470.646,2022-6-26T06:08:06Z
2022-06-26T04:09:24Z,42.805,6.029,13.3009,4.60040,2470.646,2022-6-26T06:11:09Z
2022-06-26T04:12:28Z,42.805,6.029,13.3006,4.60037,2470.661,2022-6-26T06:14:12Z
2022-06-26T04:15:31Z,42.805,6.029,13.3003,4.60037,2470.646,2022-6-26T06:17:15Z
2022-06-26T04:18:34Z,42.805,6.029,13.3007,4.60038,2470.67,2022-6-26T06:20:18Z
2022-06-26T04:21:37Z,42.805,6.029,13.3001,4.60036,2470.637,2022-6-26T06:23:21Z
2022-06-26T04:24:40Z,42.805,6.029,13.3006,4.60037,2470.67,2022-6-26T06:26:25Z
2022-06-26T04:27:43Z,42.805,6.029,13.3005,4.60037,2470.67,2022-6-26T06:29:28Z
2022-06-26T04:30:46Z,42.805,6.029,13.3005,4.60037,2470.661,2022-6-26T06:32:31Z
2022-06-26T04:33:49Z,42.805,6.029,13.3004,4.60038,2470.67,2022-6-26T06:35:34Z
2022-06-26T04:36:53Z,42.805,6.029,13.3008,4.60036,2470.693,2022-6-26T06:38:37Z
2022-06-26T04:39:56Z,42.805,6.029,13.3008,4.60038,2470.67,2022-6-26T06:41:40Z
2022-06-26T04:42:59Z,42.805,6.029,13.3005,4.60036,2470.67,2022-6-26T06:44:43Z
2022-06-26T04:46:02Z,42.805,6.029,13.3006,4.60038,2470.646,2022-6-26T06:47:46Z
2022-06-26T04:49:05Z,42.805,6.029,13.3007,4.60040,2470.67,2022-6-26T06:50:50Z
2022-06-26T04:52:08Z,42.805,6.029,13.3007,4.60037,2470.684,2022-6-26T06:53:53Z
2022-06-26T04:55:11Z,42.805,6.029,13.3004,4.60036,2470.73,2022-6-26T06:56:56Z
2022-06-26T04:58:14Z,42.805,6.029,13.3004,4.60037,2470.684,2022-6-26T06:59:59Z
2022-06-26T05:01:18Z,42.805,6.029,13.3002,4.60038,2470.707,2022-6-26T07:03:02Z
2022-06-26T05:04:21Z,42.805,6.029,13.3005,4.60039,2470.717,2022-6-26T07:06:05Z
2022-06-26T05:07:24Z,42.805,6.029,13.3007,4.60038,2470.707,2022-6-26T07:09:08Z
2022-06-26T05:10:27Z,42.805,6.029,13.3004,4.60037,2470.67,2022-6-26T07:12:11Z
2022-06-26T05:13:30Z,42.805,6.029,13.3004,4.60038,2470.693,2022-6-26T07:15:14Z
2022-06-26T05:16:33Z,42.805,6.029,13.3006,4.60039,2470.661,2022-6-26T07:18:18Z
2022-06-26T05:19:36Z,42.805,6.029,13.3005,4.60039,2470.693,2022-6-26T07:21:21Z
2022-06-26T05:22:39Z,42.805,6.029,13.3004,4.60038,2470.661,2022-6-26T07:24:24Z
2022-06-26T05:25:43Z,42.805,6.029,13.3007,4.60044,2470.707,2022-6-26T07:27:27Z
2022-06-26T05:28:46Z,42.805,6.029,13.3006,4.60037,2470.67,2022-6-26T07:30:30Z
2022-06-26T05:31:49Z,42.805,6.029,13.3004,4.60038,2470.693,2022-6-26T07:33:33Z
2022-06-26T05:34:52Z,42.805,6.029,13.3006,4.60040,2470.684,2022-6-26T07:36:36Z
2022-06-26T05:37:55Z,42.805,6.029,13.3007,4.60037,2470.693,2022-6-26T07:39:39Z
2022-06-26T05:40:58Z,42.805,6.029,13.3006,4.60037,2470.693,2022-6-26T07:42:43Z
2022-06-26T05:44:01Z,42.805,6.029,13.3005,4.60039,2470.67,2022-6-26T07:45:46Z
2022-06-26T05:47:04Z,42.805,6.029,13.3004,4.60038,2470.693,2022-6-26T07:48:49Z
2022-06-26T05:50:07Z,42.805,6.029,13.3009,4.60037,2470.717,2022-6-26T07:51:52Z
2022-06-26T05:53:11Z,42.805,6.029,13.3007,4.60039,2470.67,2022-6-26T07:54:55Z
2022-06-26T05:56:14Z,42.805,6.029,13.3006,4.60038,2470.67,2022-6-26T07:57:58Z
2022-06-26T05:59:17Z,42.805,6.029,13.3002,4.60037,2470.693,2022-6-26T08:01:01Z
2022-06-26T06:02:20Z,42.805,6.029,13.3006,4.60036,2470.707,2022-6-26T08:04:04Z
2022-06-26T06:05:23Z,42.805,6.029,13.3007,4.60037,2470.67,2022-6-26T08:07:08Z
2022-06-26T06:08:26Z,42.805,6.029,13.3007,4.60037,2470.693,2022-6-26T08:10:11Z
2022-06-26T06:11:29Z,42.805,6.029,13.3004,4.60037,2470.693,2022-6-26T08:13:14Z
2022-06-26T06:14:32Z,42.805,6.029,13.3007,4.60036,2470.693,2022-6-26T08:16:17Z
2022-06-26T06:17:36Z,42.805,6.029,13.3004,4.60038,2470.693,2022-6-26T08:19:20Z
2022-06-26T06:20:39Z,42.805,6.029,13.3006,4.60038,2470.693,2022-6-26T08:22:23Z
2022-06-26T06:23:42Z,42.805,6.029,13.3004,4.60042,2470.67,2022-6-26T08:25:26Z
2022-06-26T06:26:45Z,42.805,6.029,13.3006,4.60037,2470.707,2022-6-26T08:28:29Z
2022-06-26T06:29:48Z,42.805,6.029,13.3005,4.60039,2470.646,2022-6-26T08:31:33Z
2022-06-26T06:32:51Z,42.805,6.029,13.3009,4.60038,2470.624,2022-6-26T08:34:36Z
2022-06-26T06:35:54Z,42.805,6.029,13.3006,4.60038,2470.67,2022-6-26T08:37:39Z
2022-06-26T06:38:57Z,42.805,6.029,13.3006,4.60037,2470.67,2022-6-26T08:40:42Z
2022-06-26T06:42:01Z,42.805,6.029,13.3003,4.60039,2470.67,2022-6-26T08:43:45Z
2022-06-26T06:45:04Z,42.805,6.029,13.3009,4.60038,2470.707,2022-6-26T08:46:48Z
2022-06-26T06:48:07Z,42.805,6.029,13.3003,4.60039,2470.67,2022-6-26T08:49:51Z
2022-06-26T06:51:10Z,42.805,6.029,13.3006,4.60039,2470.646,2022-6-26T08:52:54Z
2022-06-26T06:54:13Z,42.805,6.029,13.3004,4.60042,2470.684,2022-6-26T08:55:57Z
2022-06-26T06:57:16Z,42.805,6.029,13.3001,4.60038,2470.646,2022-6-26T08:59:01Z
2022-06-26T07:00:19Z,42.805,6.029,13.3004,4.60038,2470.646,2022-6-26T09:02:04Z
2022-06-26T07:03:22Z,42.805,6.029,13.3003,4.60038,2470.624,2022-6-26T09:05:07Z
2022-06-26T07:06:26Z,42.805,6.029,13.3009,4.60037,2470.67,2022-6-26T09:08:10Z
2022-06-26T07:09:29Z,42.805,6.029,13.3006,4.60040,2470.684,2022-6-26T09:11:13Z
2022-06-26T07:12:32Z,42.805,6.029,13.3006,4.60042,2470.633,2022-6-26T09:14:16Z
2022-06-26T07:15:35Z,42.805,6.029,13.3007,4.60038,2470.684,2022-6-26T09:17:19Z
2022-06-26T07:18:38Z,42.805,6.029,13.3004,4.60039,2470.646,2022-6-26T09:20:22Z
2022-06-26T07:21:41Z,42.805,6.029,13.3006,4.60040,2470.684,2022-6-26T09:23:26Z
2022-06-26T07:24:44Z,42.805,6.029,13.3005,4.60038,2470.637,2022-6-26T09:26:29Z
2022-06-26T07:27:47Z,42.805,6.029,13.3004,4.60040,2470.646,2022-6-26T09:29:32Z
2022-06-26T07:30:50Z,42.805,6.029,13.3007,4.60038,2470.646,2022-6-26T09:32:35Z
2022-06-26T07:33:54Z,42.805,6.029,13.3001,4.60039,2470.624,2022-6-26T09:35:38Z
2022-06-26T07:36:57Z,42.805,6.029,13.3003,4.60039,2470.661,2022-6-26T09:38:41Z
2022-06-26T07:40:00Z,42.805,6.029,13.3008,4.60041,2470.577,2022-6-26T09:41:44Z
2022-06-26T07:43:03Z,42.805,6.029,13.3006,4.60037,2470.637,2022-6-26T09:44:47Z
2022-06-26T07:46:06Z,42.805,6.029,13.3004,4.60040,2470.624,2022-6-26T09:47:51Z
2022-06-26T07:49:09Z,42.805,6.029,13.3006,4.60037,2470.646,2022-6-26T09:50:54Z
2022-06-26T07:52:12Z,42.805,6.029,13.3009,4.60044,2470.624,2022-6-26T09:53:57Z
2022-06-26T07:55:15Z,42.805,6.029,13.3004,4.60039,2470.646,2022-6-26T09:57:00Z
2022-06-26T07:58:19Z,42.805,6.029,13.3005,4.60039,2470.6,2022-6-26T10:00:03Z
2022-06-26T08:01:22Z,42.805,6.029,13.3006,4.60041,2470.6,2022-6-26T10:03:06Z
2022-06-26T08:04:25Z,42.805,6.029,13.3005,4.60040,2470.624,2022-6-26T10:06:09Z
2022-06-26T08:07:28Z,42.805,6.029,13.3006,4.60036,2470.624,2022-6-26T10:09:12Z
2022-06-26T08:10:31Z,42.805,6.029,13.3005,4.60041,2470.614,2022-6-26T10:12:16Z
2022-06-26T08:13:34Z,42.805,6.029,13.3006,4.60039,2470.637,2022-6-26T10:15:19Z
2022-06-26T08:16:37Z,42.805,6.029,13.3006,4.60041,2470.624,2022-6-26T10:18:22Z
2022-06-26T08:19:40Z,42.805,6.029,13.3006,4.60039,2470.577,2022-6-26T10:21:25Z
2022-06-26T08:22:44Z,42.805,6.029,13.3006,4.60038,2470.614,2022-6-26T10:24:28Z
2022-06-26T08:25:47Z,42.805,6.029,13.3006,4.60038,2470.646,2022-6-26T10:27:31Z
2022-06-26T08:28:50Z,42.805,6.029,13.3006,4.60039,2470.637,2022-6-26T10:30:34Z
2022-06-26T08:31:53Z,42.805,6.029,13.3005,4.60037,2470.591,2022-6-26T10:33:37Z
2022-06-26T08:34:56Z,42.805,6.029,13.3002,4.60037,2470.624,2022-6-26T10:36:41Z
2022-06-26T08:37:59Z,42.805,6.029,13.3005,4.60037,2470.6,2022-6-26T10:39:44Z
2022-06-26T08:41:02Z,42.805,6.029,13.3007,4.60037,2470.6,2022-6-26T10:42:47Z
2022-06-26T08:44:05Z,42.805,6.029,13.3009,4.60040,2470.614,2022-6-26T10:45:50Z
2022-06-26T08:47:09Z,42.805,6.029,13.3007,4.60038,2470.586,2022-6-26T10:48:53Z
2022-06-26T08:50:12Z,42.805,6.029,13.3006,4.60038,2470.577,2022-6-26T10:51:56Z
2022-06-26T08:53:15Z,42.805,6.029,13.3005,4.60040,2470.6,2022-6-26T10:54:59Z
2022-06-26T08:56:18Z,42.805,6.029,13.3004,4.60039,2470.614,2022-6-26T10:58:02Z
2022-06-26T08:59:21Z,42.805,6.029,13.3004,4.60039,2470.591,2022-6-26T11:01:06Z
2022-06-26T09:02:24Z,42.805,6.029,13.3003,4.60039,2470.6,2022-6-26T11:04:09Z
2022-06-26T09:05:27Z,42.805,6.029,13.3004,4.60039,2470.6,2022-6-26T11:07:12Z
2022-06-26T09:08:30Z,42.805,6.029,13.3006,4.60040,2470.553,2022-6-26T11:10:15Z
2022-06-26T09:11:34Z,42.805,6.029,13.3007,4.60042,2470.553,2022-6-26T11:13:18Z
2022-06-26T09:14:37Z,42.805,6.029,13.3007,4.60044,2470.591,2022-6-26T11:16:21Z
2022-06-26T09:17:40Z,42.805,6.029,13.3005,4.60042,2470.577,2022-6-26T11:19:24Z
2022-06-26T09:20:43Z,42.805,6.029,13.3004,4.60042,2470.553,2022-6-26T11:22:27Z
2022-06-26T09:23:46Z,42.805,6.029,13.3004,4.60039,2470.577,2022-6-26T11:25:31Z
2022-06-26T09:26:49Z,42.805,6.029,13.3004,4.60041,2470.6,2022-6-26T11:28:34Z
2022-06-26T09:29:52Z,42.805,6.029,13.3003,4.60040,2470.591,2022-6-26T11:31:37Z
2022-06-26T09:32:55Z,42.805,6.029,13.3006,4.60042,2470.577,2022-6-26T11:34:40Z
2022-06-26T09:35:59Z,42.805,6.029,13.3005,4.60039,2470.614,2022-6-26T11:37:43Z
2022-06-26T09:39:02Z,42.805,6.029,13.3006,4.60039,2470.577,2022-6-26T11:40:46Z
2022-06-26T09:42:05Z,42.805,6.029,13.3006,4.60044,2470.553,2022-6-26T11:43:49Z
2022-06-26T09:45:08Z,42.805,6.029,13.3009,4.60039,2470.567,2022-6-26T11:46:52Z
2022-06-26T09:48:11Z,42.805,6.029,13.3000,4.60042,2470.553,2022-6-26T11:49:56Z
2022-06-26T09:51:14Z,42.805,6.029,13.3003,4.60042,2470.567,2022-6-26T11:52:59Z
2022-06-26T09:54:17Z,42.805,6.029,13.3007,4.60039,2470.553,2022-6-26T11:56:02Z
2022-06-26T09:57:20Z,42.805,6.029,13.3005,4.60039,2470.577,2022-6-26T11:59:05Z
2022-06-26T10:00:24Z,42.805,6.029,13.3007,4.60039,2470.577,2022-6-26T12:02:08Z
2022-06-26T10:03:27Z,42.805,6.029,13.3006,4.60042,2470.553,2022-6-26T12:05:11Z
2022-06-26T10:06:30Z,42.805,6.029,13.3008,4.60039,2470.553,2022-6-26T12:08:14Z
2022-06-26T10:09:33Z,42.805,6.029,13.3006,4.60045,2470.577,2022-6-26T12:11:17Z
2022-06-26T10:12:36Z,42.805,6.029,13.3005,4.60042,2470.553,2022-6-26T12:14:21Z
2022-06-26T10:15:39Z,42.805,6.029,13.3010,4.60041,2470.553,2022-6-26T12:17:24Z
2022-06-26T10:18:42Z,42.805,6.029,13.3006,4.60039,2470.553,2022-6-26T12:20:27Z
2022-06-26T10:21:45Z,42.805,6.029,13.3004,4.60039,2470.591,2022-6-26T12:23:30Z
2022-06-26T10:24:49Z,42.805,6.029,13.3006,4.60039,2470.544,2022-6-26T12:26:33Z
2022-06-26T10:27:52Z,42.805,6.029,13.3002,4.60042,2470.53,2022-6-26T12:29:36Z
2022-06-26T10:30:55Z,42.805,6.029,13.3006,4.60039,2470.53,2022-6-26T12:32:39Z
2022-06-26T10:33:58Z,42.805,6.029,13.3004,4.60041,2470.53,2022-6-26T12:35:43Z
2022-06-26T10:37:01Z,42.805,6.029,13.3005,4.60042,2470.553,2022-6-26T12:38:46Z
2022-06-26T10:40:04Z,42.805,6.029,13.3002,4.60042,2470.577,2022-6-26T12:41:49Z
2022-06-26T10:43:07Z,42.805,6.029,13.3006,4.60046,2470.553,2022-6-26T12:44:52Z
2022-06-26T10:46:11Z,42.805,6.029,13.3005,4.60042,2470.553,2022-6-26T12:47:55Z
2022-06-26T10:49:14Z,42.805,6.029,13.3007,4.60042,2470.53,2022-6-26T12:50:58Z
2022-06-26T10:52:17Z,42.805,6.029,13.3002,4.60037,2470.544,2022-6-26T12:54:01Z
2022-06-26T10:55:20Z,42.805,6.029,13.3006,4.60039,2470.567,2022-6-26T12:57:04Z
2022-06-26T10:58:23Z,42.805,6.029,13.3006,4.60040,2470.52,2022-6-26T13:00:07Z
2022-06-26T11:01:26Z,42.805,6.029,13.3004,4.60042,2470.516,2022-6-26T13:03:11Z
2022-06-26T11:04:29Z,42.805,6.029,13.3005,4.60038,2470.53,2022-6-26T13:06:14Z
2022-06-26T11:07:32Z,42.805,6.029,13.3005,4.60043,2470.553,2022-6-26T13:09:17Z
2022-06-26T11:10:35Z,42.805,6.029,13.3006,4.60046,2470.553,2022-6-26T13:12:20Z
2022-06-26T11:13:39Z,42.805,6.029,13.3007,4.60043,2470.544,2022-6-26T13:15:23Z
2022-06-26T11:16:42Z,42.805,6.029,13.3006,4.60038,2470.53,2022-6-26T13:18:26Z
2022-06-26T11:19:45Z,42.805,6.029,13.3005,4.60040,2470.53,2022-6-26T13:21:29Z
2022-06-26T11:22:48Z,42.805,6.029,13.3005,4.60038,2470.507,2022-6-26T13:24:33Z
2022-06-26T11:25:51Z,42.805,6.029,13.3002,4.60037,2470.544,2022-6-26T13:27:36Z
2022-06-26T11:28:54Z,42.805,6.029,13.3004,4.60037,2470.493,2022-6-26T13:30:39Z
2022-06-26T11:31:57Z,42.805,6.029,13.3005,4.60039,2470.544,2022-6-26T13:33:42Z
2022-06-26T11:35:01Z,42.805,6.029,13.3006,4.60041,2470.544,2022-6-26T13:36:45Z
2022-06-26T11:38:04Z,42.805,6.029,13.3003,4.60040,2470.53,2022-6-26T13:39:48Z
2022-06-26T11:41:07Z,42.805,6.029,13.3006,4.60039,2470.53,2022-6-26T13:42:51Z
2022-06-26T11:44:10Z,42.805,6.029,13.3007,4.60038,2470.507,2022-6-26T13:45:54Z
2022-06-26T11:47:13Z,42.805,6.029,13.3001,4.60038,2470.53,2022-6-26T13:48:58Z
2022-06-26T11:50:16Z,42.805,6.029,13.3006,4.60037,2470.53,2022-6-26T13:52:01Z
2022-06-26T11:53:19Z,42.805,6.029,13.3006,4.60036,2470.53,2022-6-26T13:55:04Z
2022-06-26T11:56:22Z,42.805,6.029,13.3003,4.60036,2470.53,2022-6-26T13:58:07Z
2022-06-26T11:59:26Z,42.805,6.029,13.3003,4.60037,2470.53,2022-6-26T14:01:10Z
2022-06-26T12:02:29Z,42.805,6.029,13.3007,4.60040,2470.553,2022-6-26T14:04:13Z
2022-06-26T12:05:32Z,42.805,6.029,13.3004,4.60040,2470.53,2022-6-26T14:07:16Z
2022-06-26T12:08:35Z,42.805,6.029,13.3004,4.60040,2470.53,2022-6-26T14:10:19Z
2022-06-26T12:11:38Z,42.805,6.029,13.3004,4.60039,2470.553,2022-6-26T14:13:23Z
2022-06-26T12:14:41Z,42.805,6.029,13.3005,4.60040,2470.53,2022-6-26T14:16:26Z
2022-06-26T12:17:44Z,42.805,6.029,13.3006,4.60037,2470.544,2022-6-26T14:19:29Z
2022-06-26T12:20:47Z,42.805,6.029,13.3007,4.60039,2470.52,2022-6-26T14:22:32Z
2022-06-26T12:23:51Z,42.805,6.029,13.3004,4.60043,2470.544,2022-6-26T14:25:35Z
2022-06-26T12:26:54Z,42.805,6.029,13.3006,4.60043,2470.53,2022-6-26T14:28:38Z
2022-06-26T12:29:57Z,42.805,6.029,13.3007,4.60040,2470.53,2022-6-26T14:31:41Z
2022-06-26T12:33:00Z,42.805,6.029,13.3004,4.60048,2470.553,2022-6-26T14:34:44Z
2022-06-26T12:36:03Z,42.805,6.029,13.3009,4.60043,2470.53,2022-6-26T14:37:48Z
2022-06-26T12:39:06Z,42.805,6.029,13.3006,4.60043,2470.53,2022-6-26T14:40:51Z
2022-06-26T12:42:09Z,42.805,6.029,13.3007,4.60044,2470.53,2022-6-26T14:43:54Z
2022-06-26T12:45:12Z,42.805,6.029,13.3009,4.60044,2470.567,2022-6-26T14:46:57Z
2022-06-26T12:48:16Z,42.805,6.029,13.3003,4.60039,2470.544,2022-6-26T14:50:00Z
2022-06-26T12:51:19Z,42.805,6.029,13.3002,4.60044,2470.47,2022-6-26T14:53:03Z
2022-06-26T12:54:22Z,42.805,6.029,13.3006,4.60042,2470.53,2022-6-26T14:56:06Z
2022-06-26T12:57:25Z,42.805,6.029,13.3006,4.60043,2470.567,2022-6-26T14:59:09Z
2022-06-26T13:00:28Z,42.805,6.029,13.3006,4.60045,2470.53,2022-6-26T15:02:13Z
2022-06-26T13:03:31Z,42.805,6.029,13.3008,4.60044,2470.53,2022-6-26T15:05:16Z
2022-06-26T13:06:34Z,42.805,6.029,13.3009,4.60044,2470.544,2022-6-26T15:08:19Z
2022-06-26T13:09:37Z,42.805,6.029,13.3006,4.60043,2470.53,2022-6-26T15:11:22Z
2022-06-26T13:12:41Z,42.805,6.029,13.3004,4.60040,2470.553,2022-6-26T15:14:25Z
2022-06-26T13:15:44Z,42.805,6.029,13.3006,4.60045,2470.53,2022-6-26T15:17:28Z
2022-06-26T13:18:47Z,42.805,6.029,13.3008,4.60039,2470.553,2022-6-26T15:20:31Z
2022-06-26T13:21:50Z,42.805,6.029,13.3009,4.60042,2470.553,2022-6-26T15:23:34Z
2022-06-26T13:24:53Z,42.805,6.029,13.3006,4.60046,2470.553,2022-6-26T15:26:38Z
2022-06-26T13:27:56Z,42.805,6.029,13.3007,4.60040,2470.53,2022-6-26T15:29:41Z
2022-06-26T13:30:59Z,42.805,6.029,13.3006,4.60042,2470.553,2022-6-26T15:32:44Z
2022-06-26T13:34:02Z,42.805,6.029,13.3005,4.60039,2470.553,2022-6-26T15:35:47Z
2022-06-26T13:37:06Z,42.805,6.029,13.3005,4.60040,2470.567,2022-6-26T15:38:50Z
2022-06-26T13:40:09Z,42.805,6.029,13.3008,4.60040,2470.567,2022-6-26T15:41:53Z
2022-06-26T13:43:12Z,42.805,6.029,13.3005,4.60040,2470.553,2022-6-26T15:44:56Z
2022-06-26T13:46:15Z,42.805,6.029,13.3006,4.60044,2470.591,2022-6-26T15:47:59Z
2022-06-26T13:49:18Z,42.805,6.029,13.3006,4.60044,2470.577,2022-6-26T15:51:03Z
2022-06-26T13:52:21Z,42.805,6.029,13.3002,4.60040,2470.53,2022-6-26T15:54:06Z
2022-06-26T13:55:24Z,42.805,6.029,13.3011,4.60041,2470.53,2022-6-26T15:57:09Z
2022-06-26T13:58:27Z,42.805,6.029,13.3006,4.60042,2470.614,2022-6-26T16:00:12Z
2022-06-26T14:01:31Z,42.805,6.029,13.3006,4.60042,2470.553,2022-6-26T16:03:15Z
2022-06-26T14:04:34Z,42.805,6.029,13.3006,4.60042,2470.553,2022-6-26T16:06:18Z
2022-06-26T14:07:37Z,42.805,6.029,13.3005,4.60047,2470.577,2022-6-26T16:09:21Z
2022-06-26T14:10:40Z,42.805,6.029,13.3006,4.60044,2470.591,2022-6-26T16:12:24Z
2022-06-26T14:13:43Z,42.805,6.029,13.3010,4.60042,2470.553,2022-6-26T16:15:28Z
2022-06-26T14:16:46Z,42.805,6.029,13.3004,4.60043,2470.567,2022-6-26T16:18:31Z
2022-06-26T14:19:49Z,42.805,6.029,13.3005,4.60041,2470.577,2022-6-26T16:21:34Z
2022-06-26T14:22:52Z,42.805,6.029,13.3006,4.60042,2470.577,2022-6-26T16:24:37Z
2022-06-26T14:25:56Z,42.805,6.029,13.3006,4.60040,2470.6,2022-6-26T16:27:40Z
2022-06-26T14:28:59Z,42.805,6.029,13.3005,4.60043,2470.6,2022-6-26T16:30:43Z
2022-06-26T14:32:02Z,42.805,6.029,13.3004,4.60040,2470.6,2022-6-26T16:33:46Z
2022-06-26T14:35:05Z,42.805,6.029,13.3006,4.60042,2470.6,2022-6-26T16:36:50Z
2022-06-26T14:38:08Z,42.805,6.029,13.3008,4.60039,2470.577,2022-6-26T16:39:53Z
2022-06-26T14:41:11Z,42.805,6.029,13.3006,4.60040,2470.591,2022-6-26T16:42:56Z
2022-06-26T14:44:14Z,42.805,6.029,13.3006,4.60041,2470.567,2022-6-26T16:45:59Z
2022-06-26T14:47:18Z,42.805,6.029,13.3004,4.60040,2470.6,2022-6-26T16:49:02Z
2022-06-26T14:50:21Z,42.805,6.029,13.3004,4.60042,2470.6,2022-6-26T16:52:05Z
2022-06-26T14:53:24Z,42.805,6.029,13.3007,4.60041,2470.624,2022-6-26T16:55:08Z
2022-06-26T14:56:27Z,42.805,6.029,13.3007,4.60044,2470.591,2022-6-26T16:58:11Z
2022-06-26T14:59:30Z,42.805,6.029,13.3006,4.60043,2470.624,2022-6-26T17:01:15Z
2022-06-26T15:02:33Z,42.805,6.029,13.3004,4.60041,2470.591,2022-6-26T17:04:18Z
2022-06-26T15:05:36Z,42.805,6.029,13.3006,4.60043,2470.624,2022-6-26T17:07:21Z
2022-06-26T15:08:39Z,42.805,6.029,13.3004,4.60040,2470.646,2022-6-26T17:10:24Z
2022-06-26T15:11:43Z,42.805,6.029,13.3004,4.60039,2470.661,2022-6-26T17:13:27Z
2022-06-26T15:14:46Z,42.805,6.029,13.3006,4.60040,2470.637,2022-6-26T17:16:30Z